Weather in Konoshanovo

Russia / Irkutsk Oblast     55°21′14″N   105°28′35″E
temp.,
°C
wind,
m/s
gust,
m/s
humid.,
%
clouds,
%
prec.,
mm/h
press.,
hPa
HPBL,
m
6 may, thu
thu623:00−4w119761 0.0 101910
02:00−4sw119717 0.0 101910
05:00−5ssw119616 0.0 101912
08:00+1s2368100 0.0 1017364
11:00+5ssw3441100 0.0 10131740
14:00+6ssw3541100 0.0 10091954
17:00+4sw3570100 0.2 1009994
20:00+1sw1499100 2.1 1008314
7 may, fri
fri723:00+1w2699100 1.1 1008351
02:000nw3897100 1.9 1010632
05:000nw2597100 0.3 1012295
08:00+1nnw358461 0.4 1014721
11:00+5n46575 0.1 10141283
14:00+7nne444925 0.1 10141452
17:00+7ne345252 0.0 10141360
20:00+3ene21745 0.0 101533
8 may, sat
sat823:00−1e11913 0.0 101610
02:00−2ese11935 0.0 101511
05:00−2ese119495 0.0 101511
08:00+4sse1272100 0.0 1014296
11:00+8wsw3449100 0.0 10111526
14:00+10wsw3342100 0.0 10091934
17:00+5w2384100 0.3 1012597
20:00+3wnw1288100 0.3 1013365
9 may, sun
sun923:00+1wnw119442 0.0 101417
02:00−1se009651 0.0 101410
05:000ssw1199100 1.1 101350
08:00+2s1198100 1.8 1012113
11:00+5sw1277100 0.0 1011716
14:00+8w1265100 0.3 10101241
17:00+6w1181100 0.6 1010774
20:00+4w2297100 1.3 1011417
10 may, mon
mon1023:00+3nw1498100 1.6 1012518
02:00+2nw1399100 4.3 1013324
05:00+1nw12100100 2.0 1014225
08:00+2nw1399100 2.9 1015201
11:00+3nnw1396100 0.0 1016445
14:00+6nw2480100 0.1 1015706
17:00+8n2572100 0.6 1015974
20:00+5nw1187100 0.8 101612